{"data":{"norad_id":66545,"epoch":"2026-09-20T23:38:14.895168Z","epoch_age_seconds":82261,"freshness":"FRESH","line1":"1 66545U 25266A   26263.98489462  .00004169  00000+0  23240-3 0  9999","line2":"2 66545  51.7967  90.6101 0006490 209.0625 150.9991 15.15646354 46388","mean_motion":15.15646354,"eccentricity":0.000649,"inclination_deg":51.7967,"raan_deg":90.6101,"arg_perigee_deg":209.0625,"mean_anomaly_deg":150.9991,"bstar":0.0002324,"rev_number":4638,"period_min":95.008970674435,"perigee_km":514.54072904559,"apogee_km":523.4932349142,"semimajor_km":6897.1539819799,"source":"CELESTRAK","updated_at":"2026-09-21T09:00:16.047006Z"}}